KE8AFF-13 Weather Reports


Display with metric or nautical units.
time (UTC)temp
F
wind
direction
speed
MPH
gust
MPH
rain 1hr
in
rain 24hr
in
rain mn
in
humidity
%
barometer
mb
20260510230556 61 221 2.0 6.0 0.00 0.00 0.00 45 1018.0
20260510230052 61 322 4.0 5.0 0.00 0.00 0.00 43 1017.6
20260510225549 62 326 4.0 5.0 0.00 0.00 0.00 44 1018.0
20260510225045 61 4 5.0 7.0 0.00 0.00 0.00 43 1017.9
20260510224541 61 342 3.0 7.0 0.00 0.00 0.00 44 1018.1
20260510224037 61 229 3.0 7.0 0.00 0.00 0.00 46 1018.0
20260510223536 61 5 2.0 3.0 0.00 0.00 0.00 46 1018.2
20260510223032 62 39 4.0 6.0 0.00 0.00 0.00 45 1018.0
20260510222530 61 27 3.0 7.0 0.00 0.00 0.00 45 1017.9
20260510222026 61 20 3.0 9.0 0.00 0.00 0.00 48 1018.0
20260510221521 62 344 5.0 7.0 0.00 0.00 0.00 48 1017.9
20260510221018 61 310 1.0 8.0 0.00 0.00 0.00 49 1018.0
20260510220514 60 65 2.0 7.0 0.00 0.00 0.00 49 1017.8
20260510220010 60 344 5.0 10.0 0.00 0.00 0.00 49 1018.0
20260510215508 60 335 5.0 6.0 0.00 0.00 0.00 48 1017.8
20260510215006 60 71 6.0 7.0 0.00 0.00 0.00 49 1017.5
20260510214502 60 273 2.0 6.0 0.00 0.00 0.00 48 1017.5
20260510213958 61 357 7.0 9.0 0.00 0.00 0.00 47 1017.6
20260510213456 62 187 1.0 1.0 0.00 0.00 0.00 46 1017.5
20260510212952 62 216 2.0 3.0 0.00 0.00 0.00 46 1017.2
20260510212449 61 176 1.0 2.0 0.00 0.00 0.00 45 1017.2
20260510211946 61 212 0.0 0.0 0.00 0.00 0.00 47 1017.2
20260510211443 60 240 1.0 7.0 0.00 0.00 0.00 46 1017.0
20260510210937 61 352 3.0 6.0 0.00 0.00 0.00 47 1016.8
20260510210433 60 225 1.0 3.0 0.00 0.00 0.00 49 1017.0
20260510205932 60 329 5.0 6.0 0.00 0.00 0.00 47 1017.1
20260510205427 60 345 7.0 9.0 0.00 0.00 0.00 47 1017.4
20260510204924 60 289 7.0 9.0 0.00 0.00 0.00 47 1017.2
20260510204420 61 348 7.0 9.0 0.00 0.00 0.00 47 1016.7
20260510203916 61 339 7.0 9.0 0.00 0.00 0.00 49 1017.1
20260510203414 61 324 6.0 8.0 0.00 0.00 0.00 48 1017.0
20260510202914 62 332 9.0 10.0 0.00 0.00 0.00 46 1017.1
20260510202410 63 59 4.0 6.0 0.00 0.00 0.00 45 1017.0
20260510201907 62 273 5.0 7.0 0.00 0.00 0.00 44 1016.8
20260510201404 61 341 11.0 14.0 0.00 0.00 0.00 46 1017.3
20260510200901 62 251 5.0 6.0 0.00 0.00 0.00 46 1017.3
20260510200400 62 205 1.0 3.0 0.00 0.00 0.00 46 1017.3
20260510195855 61 21 3.0 6.0 0.00 0.00 0.00 47 1017.6
20260510195351 61 57 5.0 7.0 0.00 0.00 0.00 46 1017.6
20260510194846 63 227 1.0 5.0 0.00 0.00 0.00 46 1017.5
20260510194343 62 252 4.0 6.0 0.00 0.00 0.00 46 1017.4
20260510193839 62 289 2.0 6.0 0.00 0.00 0.00 46 1017.6
20260510193334 62 350 3.0 8.0 0.00 0.00 0.00 47 1017.4
20260510192830 61 343 5.0 8.0 0.00 0.00 0.00 48 1017.6
20260510192325 62 29 4.0 6.0 0.00 0.00 0.00 48 1017.8
20260510191822 61 237 2.0 6.0 0.00 0.00 0.00 47 1017.6
20260510191317 62 274 7.0 9.0 0.00 0.00 0.00 49 1017.7
20260510190815 61 329 8.0 9.0 0.00 0.00 0.00 48 1017.5
20260510190313 60 18 6.0 9.0 0.00 0.00 0.00 49 1017.5
20260510185809 61 33 5.0 7.0 0.00 0.00 0.00 45 1017.7
20260510185307 61 340 6.0 9.0 0.00 0.00 0.00 46 1017.5
20260510184804 61 322 5.0 7.0 0.00 0.00 0.00 46 1017.2
20260510184300 61 101 1.0 5.0 0.00 0.00 0.00 50 1017.4
20260510183755 60 189 3.0 3.0 0.00 0.00 0.00 48 1017.4
20260510183250 60 264 2.0 6.0 0.00 0.00 0.00 48 1017.7
20260510182747 60 74 2.0 7.0 0.00 0.00 0.00 50 1017.5
20260510182243 60 351 3.0 10.0 0.00 0.00 0.00 51 1017.4
20260510181740 60 342 5.0 7.0 0.00 0.00 0.00 51 1017.4
20260510181237 60 344 3.0 7.0 0.00 0.00 0.00 49 1017.3
20260510180733 60 345 3.0 6.0 0.00 0.00 0.00 49 1017.3
20260510180230 59 54 4.0 6.0 0.00 0.00 0.00 53 1017.4
20260510175727 59 95 5.0 7.0 0.00 0.00 0.00 54 1017.3
20260510175222 60 270 2.0 5.0 0.00 0.00 0.00 55 1017.0
20260510174720 60 46 4.0 7.0 0.00 0.00 0.00 55 1016.8
20260510174217 60 3 5.0 8.0 0.00 0.00 0.00 57 1017.0
20260510173713 59 45 2.0 8.0 0.00 0.00 0.00 56 1017.0
20260510173209 59 29 3.0 6.0 0.00 0.00 0.00 56 1017.2
20260510172704 58 38 3.0 3.0 0.00 0.00 0.00 55 1017.1
20260510172201 60 35 4.0 7.0 0.00 0.00 0.00 56 1017.1
20260510171658 58 339 5.0 7.0 0.00 0.00 0.00 57 1017.2
20260510171155 57 246 5.0 7.0 0.00 0.00 0.00 57 1017.2
20260510170651 59 64 3.0 7.0 0.00 0.00 0.00 58 1017.5
20260510170147 58 30 4.0 6.0 0.00 0.00 0.00 56 1017.5
20260510165643 58 248 3.0 5.0 0.00 0.00 0.00 59 1017.6
20260510165139 58 96 0.0 3.0 0.00 0.00 0.00 60 1017.6
20260510164637 58 109 2.0 5.0 0.00 0.00 0.00 62 1017.6
20260510164134 57 60 4.0 9.0 0.00 0.00 0.00 61 1017.4
20260510163629 57 11 9.0 11.0 0.00 0.00 0.00 61 1017.4
20260510163125 57 162 2.0 7.0 0.00 0.00 0.00 60 1017.5
20260510162620 58 109 4.0 6.0 0.00 0.00 0.00 60 1017.7
20260510162117 58 49 3.0 7.0 0.00 0.00 0.00 62 1017.4
20260510161612 56 33 3.0 7.0 0.00 0.00 0.00 62 1017.6
20260510161110 57 61 5.0 8.0 0.00 0.00 0.00 60 1017.6
20260510160607 57 60 4.0 13.0 0.00 0.00 0.00 62 1017.4
20260510160106 57 162 3.0 9.0 0.00 0.00 0.00 64 1017.2
20260510155603 57 40 5.0 14.0 0.00 0.00 0.00 62 1017.4
20260510155059 57 145 4.0 9.0 0.00 0.00 0.00 64 1017.4
20260510154555 56 31 2.0 8.0 0.00 0.00 0.00 67 1017.4
20260510154051 56 32 3.0 11.0 0.00 0.00 0.00 67 1017.4
20260510153546 55 19 3.0 8.0 0.00 0.00 0.00 69 1017.1
20260510153043 56 332 4.0 8.0 0.00 0.00 0.00 68 1017.0
20260510152539 56 336 4.0 8.0 0.00 0.00 0.00 72 1017.0
20260510152036 55 2 4.0 8.0 0.00 0.00 0.00 70 1016.6
20260510151533 55 73 6.0 10.0 0.00 0.00 0.00 69 1016.7
20260510151031 55 2 4.0 10.0 0.00 0.00 0.00 68 1016.7
20260510150525 55 21 3.0 9.0 0.00 0.00 0.00 70 1016.4
20260510150021 54 80 5.0 8.0 0.00 0.00 0.00 71 1016.7
20260510145518 55 68 5.0 8.0 0.00 0.00 0.00 69 1016.4
20260510145015 55 29 7.0 11.0 0.00 0.00 0.00 71 1016.5
20260510144511 54 65 3.0 6.0 0.00 0.00 0.00 73 1016.6
20260510144008 54 35 5.0 9.0 0.00 0.00 0.00 71 1016.5
20260510143503 54 52 6.0 10.0 0.00 0.00 0.00 71 1016.5
20260510142959 55 352 5.0 8.0 0.00 0.00 0.00 72 1016.5
20260510142456 54 33 6.0 7.0 0.00 0.00 0.00 74 1016.3
20260510141953 54 37 5.0 10.0 0.00 0.00 0.00 75 1015.8
20260510141449 53 84 5.0 7.0 0.00 0.00 0.00 74 1015.8
20260510140947 54 4 6.0 9.0 0.00 0.00 0.00 74 1015.9
20260510140443 53 41 5.0 10.0 0.00 0.00 0.00 75 1015.9
20260510135942 53 81 5.0 9.0 0.00 0.00 0.00 75 1016.0
20260510135438 53 14 7.0 10.0 0.00 0.00 0.00 74 1016.0
20260510134935 53 16 4.0 9.0 0.00 0.00 0.00 76 1015.8
20260510134432 52 47 7.0 10.0 0.00 0.00 0.00 77 1015.9
20260510133928 53 354 7.0 10.0 0.00 0.00 0.00 79 1015.8
20260510133425 52 43 7.0 10.0 0.00 0.00 0.00 79 1015.7
20260510132920 51 356 8.0 11.0 0.00 0.00 0.00 79 1015.7
20260510132418 51 55 5.0 10.0 0.00 0.00 0.00 81 1015.7
20260510131915 51 101 5.0 8.0 0.00 0.00 0.00 82 1015.6
20260510131412 51 40 3.0 6.0 0.00 0.00 0.00 81 1015.6
20260510130908 51 96 4.0 8.0 0.00 0.00 0.00 80 1015.4
20260510130406 51 89 3.0 9.0 0.00 0.00 0.00 80 1015.6
20260510125903 51 15 6.0 8.0 0.00 0.00 0.00 80 1015.3
20260510125359 51 26 5.0 8.0 0.00 0.00 0.00 80 1015.3
20260510124856 51 27 4.0 7.0 0.00 0.00 0.00 79 1015.4
20260510124352 51 57 5.0 7.0 0.00 0.00 0.00 79 1015.2
20260510123848 51 155 1.0 6.0 0.00 0.00 0.00 80 1015.2
20260510123344 51 46 6.0 7.0 0.00 0.00 0.00 78 1015.2
20260510122840 51 251 3.0 9.0 0.00 0.00 0.00 78 1015.2
20260510122336 51 8 5.0 7.0 0.00 0.00 0.00 78 1015.2
20260510121833 51 20 3.0 7.0 0.00 0.00 0.00 78 1014.8
20260510121331 51 356 1.0 5.0 0.00 0.00 0.00 81 1014.7
20260510120828 51 86 2.0 5.0 0.00 0.00 0.00 81 1014.4
20260510120325 51 4 3.0 5.0 0.00 0.00 0.00 81 1014.6
20260510115820 51 113 2.0 3.0 0.00 0.00 0.00 82 1014.4
20260510115318 50 327 3.0 5.0 0.00 0.00 0.00 82 1014.2
20260510114813 51 347 3.0 3.0 0.00 0.00 0.00 84 1014.3
20260510114311 50 321 3.0 3.0 0.00 0.00 0.00 83 1014.2
20260510113805 50 259 1.0 2.0 0.00 0.00 0.00 83 1014.1
20260510113303 50 219 0.0 1.0 0.00 0.00 0.00 83 1014.2
20260510112759 50 239 1.0 1.0 0.00 0.00 0.00 82 1013.8
20260510112256 50 218 0.0 2.0 0.00 0.00 0.00 83 1013.6
20260510111752 50 47 2.0 2.0 0.00 0.00 0.00 83 1013.5
20260510111249 50 148 1.0 2.0 0.00 0.00 0.00 82 1013.3
20260510110748 51 172 1.0 2.0 0.00 0.00 0.00 79 1013.5
20260510110246 51 219 1.0 2.0 0.00 0.00 0.00 78 1013.7
20260510105746 51 240 2.0 3.0 0.00 0.00 0.00 78 1013.3
20260510105241 51 129 1.0 2.0 0.00 0.00 0.00 79 1012.9
20260510104738 50 57 2.0 3.0 0.00 0.00 0.00 78 1012.9
20260510104236 51 163 1.0 2.0 0.00 0.00 0.00 79 1012.7
20260510103732 51 169 1.0 2.0 0.00 0.00 0.00 78 1012.9
20260510103229 51 343 2.0 3.0 0.00 0.00 0.00 77 1013.0
20260510102729 51 265 1.0 5.0 0.00 0.00 0.00 78 1012.8
20260510102224 51 221 1.0 2.0 0.00 0.00 0.00 78 1012.7
20260510101723 51 170 1.0 3.0 0.00 0.00 0.00 78 1012.5
20260510101221 51 52 1.0 3.0 0.00 0.00 0.00 78 1012.5
20260510100716 51 216 0.0 1.0 0.00 0.00 0.00 78 1012.4
20260510100215 51 311 3.0 5.0 0.00 0.00 0.00 78 1012.3
20260510095709 51 342 2.0 5.0 0.00 0.00 0.00 78 1012.1
20260510095205 51 40 3.0 6.0 0.00 0.00 0.00 77 1012.0
20260510094703 51 326 4.0 6.0 0.00 0.00 0.00 78 1011.9
20260510094200 51 335 2.0 5.0 0.00 0.00 0.00 79 1012.1
20260510093655 51 16 3.0 5.0 0.00 0.00 0.00 80 1012.1
20260510093153 51 24 6.0 7.0 0.00 0.00 0.00 80 1011.8
20260510092649 51 356 2.0 5.0 0.00 0.00 0.00 81 1011.6
20260510092145 51 4 4.0 5.0 0.00 0.00 0.00 81 1011.8
20260510091641 52 27 6.0 7.0 0.00 0.00 0.00 82 1011.7
20260510091137 52 12 4.0 5.0 0.00 0.00 0.00 82 1011.5
20260510090634 52 4 5.0 6.0 0.00 0.00 0.00 82 1011.4
20260510090131 52 30 4.0 6.0 0.00 0.00 0.00 83 1011.3
20260510085626 52 332 3.0 5.0 0.00 0.00 0.00 83 1011.4
20260510085121 52 26 3.0 6.0 0.00 0.00 0.00 84 1011.5
20260510084618 52 349 2.0 5.0 0.00 0.00 0.00 84 1011.3
20260510084115 53 335 3.0 5.0 0.00 0.00 0.00 84 1011.3
20260510083611 53 324 3.0 3.0 0.00 0.00 0.00 84 1011.1
20260510083107 53 61 2.0 6.0 0.00 0.00 0.00 83 1010.9
20260510082604 53 8 4.0 5.0 0.00 0.00 0.00 85 1011.0
20260510082100 53 81 2.0 3.0 0.00 0.00 0.00 86 1011.0
20260510081554 54 237 1.0 2.0 0.00 0.00 0.00 85 1010.9
20260510081051 54 229 1.0 2.0 0.00 0.00 0.00 83 1010.8
20260510080550 54 96 2.0 3.0 0.00 0.00 0.00 82 1010.6
20260510080047 54 22 3.0 6.0 0.00 0.00 0.00 82 1010.8
20260510075544 54 330 4.0 5.0 0.00 0.00 0.00 84 1010.5
20260510075041 54 318 2.0 5.0 0.00 0.00 0.00 84 1010.7
20260510074539 55 347 2.0 3.0 0.00 0.00 0.00 83 1010.7
20260510074034 55 270 1.0 2.0 0.00 0.00 0.00 83 1010.5
20260510073530 55 240 1.0 3.0 0.00 0.00 0.00 82 1010.5
20260510073027 55 259 1.0 3.0 0.00 0.00 0.00 82 1010.5
20260510072524 55 52 3.0 3.0 0.00 0.00 0.00 82 1010.4
20260510072019 56 328 4.0 5.0 0.00 0.00 0.00 81 1010.4
20260510071515 56 347 3.0 7.0 0.00 0.00 0.00 81 1010.2
20260510071014 56 17 4.0 6.0 0.00 0.00 0.00 81 1010.5
20260510070511 56 349 5.0 6.0 0.00 0.00 0.00 82 1010.4
20260510070008 56 328 4.0 6.0 0.00 0.00 0.00 83 1010.1
20260510065504 56 235 0.0 5.0 0.00 0.00 0.00 86 1010.0
20260510065000 56 335 2.0 3.0 0.00 0.00 0.00 87 1010.1
20260510064457 56 222 1.0 3.0 0.00 0.00 0.00 86 1010.0
20260510063953 56 258 1.0 5.0 0.00 0.00 0.00 86 1009.7
20260510063444 57 304 4.0 5.0 0.00 0.00 0.00 86 1010.0
20260510062942 57 260 1.0 3.0 0.00 0.00 0.00 88 1009.7
20260510062436 57 234 1.0 3.0 0.00 0.00 0.00 88 1010.0
20260510061932 57 224 1.0 2.0 0.00 0.00 0.00 88 1009.7
20260510061423 57 247 0.0 1.0 0.00 0.00 0.00 88 1009.5
20260510060919 58 241 1.0 3.0 0.00 0.00 0.00 88 1010.1
20260510060416 58 354 2.0 3.0 0.00 0.00 0.00 88 1009.8
20260510055913 58 234 1.0 3.0 0.00 0.00 0.00 88 1009.6
20260510055408 58 233 1.0 3.0 0.00 0.00 0.00 88 1009.5
20260510054906 59 217 0.0 3.0 0.00 0.00 0.00 87 1009.2
20260510054402 59 219 1.0 1.0 0.00 0.00 0.00 87 1009.3
20260510053857 59 260 2.0 5.0 0.00 0.00 0.00 87 1009.5
20260510053353 59 223 3.0 5.0 0.00 0.00 0.00 87 1009.3
20260510052850 58 244 2.0 6.0 0.00 0.00 0.00 89 1009.1
20260510052345 58 223 3.0 5.0 0.00 0.00 0.00 92 1009.0
20260510051842 57 231 1.0 2.0 0.00 0.00 0.00 94 1008.8
20260510051338 57 219 1.0 2.0 0.00 0.00 0.00 95 1008.7
20260510050835 57 224 2.0 3.0 0.00 0.00 0.00 96 1008.5
20260510050332 57 221 1.0 2.0 0.00 0.00 0.00 96 1008.4
20260510045829 57 212 1.0 3.0 0.00 0.00 0.00 96 1008.5
20260510045325 57 216 2.0 3.0 0.00 0.00 0.00 96 1008.4
20260510044823 56 217 1.0 2.0 0.00 0.00 0.00 97 1008.4
20260510044320 57 216 1.0 1.0 0.00 0.00 0.00 97 1008.1
20260510043816 57 209 1.0 1.0 0.00 0.00 0.00 97 1008.1
20260510043312 56 219 1.0 1.0 0.00 0.00 0.00 97 1008.0
20260510042810 56 215 1.0 2.0 0.00 0.00 0.00 97 1008.2
20260510042307 56 221 3.0 5.0 0.00 0.00 0.00 97 1008.2
20260510041803 56 194 1.0 5.0 0.00 0.00 0.00 96 1008.0
20260510041259 56 217 0.0 1.0 0.00 0.00 0.00 96 1008.0
20260510040756 56 212 1.0 2.0 0.00 0.00 0.00 95 1008.0
20260510040248 57 204 1.0 1.0 0.00 0.00 0.00 94 1007.8
20260510035743 57 210 0.0 1.0 0.00 0.17 0.17 93 1007.7
20260510035239 58 198 3.0 3.0 0.02 0.17 0.17 92 1007.9
20260510034735 58 193 1.0 3.0 0.33 0.17 0.17 91 1007.9
20260510034233 58 182 2.0 2.0 0.57 0.16 0.16 91 1008.0
20260510033729 59 190 4.0 7.0 0.33 0.11 0.11 89 1008.5
20260510033227 61 246 3.0 8.0 0.12 0.07 0.07 85 1008.8
20260510032723 62 219 7.0 15.0 0.07 0.06 0.06 80 1008.5
20260510032219 63 253 14.0 20.0 0.02 0.05 0.05 79 1008.1
20260510031714 61 220 5.0 8.0 0.00 0.04 0.04 80 1007.4
20260510031211 61 220 1.0 2.0 0.00 0.04 0.04 80 1007.6
20260510030709 61 218 2.0 2.0 0.00 0.04 0.04 80 1007.5
20260510030208 61 220 2.0 3.0 0.00 0.04 0.04 81 1007.4
20260510025705 60 192 3.0 3.0 0.00 0.04 0.04 81 1007.4
20260510025202 60 215 3.0 3.0 0.00 0.04 0.04 83 1007.3
20260510024659 60 203 3.0 3.0 0.00 0.04 0.04 83 1007.5
20260510024155 60 211 2.0 5.0 0.00 0.04 0.04 83 1007.4
20260510023651 59 198 3.0 3.0 0.00 0.04 0.04 85 1007.6
20260510023148 59 217 1.0 1.0 0.00 0.04 0.04 86 1007.3
20260510022643 59 218 2.0 2.0 0.00 0.04 0.04 86 1007.4
20260510022138 58 205 1.0 1.0 0.00 0.04 0.04 87 1007.3
20260510021634 58 203 1.0 1.0 0.00 0.04 0.04 87 1007.3
20260510021131 58 209 0.0 0.0 0.00 0.04 0.04 86 1007.2
20260510020625 59 209 0.0 0.0 0.00 0.04 0.04 86 1007.3
20260510020121 59 178 1.0 1.0 0.00 0.04 0.04 85 1007.4
20260510015617 59 211 0.0 1.0 0.00 0.04 0.04 84 1007.1
20260510015114 60 211 0.0 0.0 0.00 0.04 0.04 83 1007.0
20260510014610 60 213 0.0 0.0 0.00 0.04 0.04 83 1007.0
20260510014108 60 216 0.0 0.0 0.00 0.04 0.04 82 1006.9
20260510013602 60 218 0.0 1.0 0.00 0.04 0.04 82 1006.6
20260510013058 60 213 0.0 0.0 0.00 0.04 0.04 81 1006.5
20260510012557 60 203 1.0 2.0 0.00 0.04 0.04 81 1006.5
20260510012054 60 209 0.0 0.0 0.00 0.04 0.04 81 1006.2
20260510011554 60 213 0.0 0.0 0.00 0.04 0.04 81 1006.2
20260510011050 60 220 0.0 1.0 0.00 0.04 0.04 81 1006.0
20260510010547 60 192 1.0 2.0 0.00 0.04 0.04 81 1006.2
20260510010044 60 212 0.0 0.0 0.00 0.04 0.04 81 1006.5
20260510005539 60 215 0.0 0.0 0.00 0.04 0.04 81 1006.2
20260510005037 60 207 0.0 1.0 0.00 0.04 0.04 80 1006.0
20260510004535 60 200 0.0 0.0 0.00 0.04 0.04 81 1006.0
20260510004032 60 202 1.0 1.0 0.00 0.04 0.04 80 1006.1
20260510003529 60 183 0.0 1.0 0.00 0.04 0.04 80 1005.9
20260510003024 60 213 0.0 0.0 0.00 0.04 0.04 80 1005.9
20260510002520 61 216 0.0 1.0 0.00 0.04 0.04 80 1006.1
20260510002017 61 309 3.0 3.0 0.00 0.04 0.04 79 1006.1
20260510001514 61 338 1.0 2.0 0.00 0.04 0.04 79 1005.9
20260510001012 61 311 3.0 5.0 0.00 0.04 0.04 78 1005.8
20260510000507 61 337 3.0 6.0 0.00 0.04 0.04 78 1006.1
20260510000004 62 44 6.0 8.0 0.00 0.04 0.04 76 1005.6
20260509235501 62 5 4.0 9.0 0.00 0.04 0.04 75 1005.8
20260509234957 63 340 8.0 11.0 0.00 0.04 0.04 72 1006.0
20260509234454 71 29 7.0 14.0 0.00 0.04 0.04 62 1005.8
20260509233952 71 282 4.0 8.0 0.00 0.04 0.04 56 1005.4
20260509233449 72 254 7.0 10.0 0.00 0.04 0.04 55 1005.4
20260509232945 71 224 6.0 17.0 0.00 0.04 0.04 56 1005.2
20260509232443 71 290 8.0 11.0 0.00 0.04 0.04 55 1005.1
20260509231938 71 257 8.0 13.0 0.00 0.04 0.04 55 1004.7
20260509231435 71 268 8.0 11.0 0.00 0.04 0.04 55 1004.8
20260509230934 70 232 5.0 11.0 0.00 0.04 0.04 56 1004.8